GIA284 WIPP-WIII

Flight info

Callsign GIA284
Flight time 0h 46m
Altitude 29000
Route WIPP/29 GUSKO DCT DOLTA DCT NININ DCT ODBAN DCT NEGLA
Aircraft B738/M-SDE2E3FGHIRWXY/LB1

Departure

Time 2026-05-04 10:51
Airport Sultan Mahmud Badaruddin II Airport (WIPP)

Arrival

Time 2026-05-04 11:38
Airport Soekarno-Hatta International Airport (WIII)
Time Latitude Longitude Altitude Speed Heading
2026-05-04 10:19 -2.89637 104.70499 29 ft 0 kts 23°
2026-05-04 10:44 -2.89706 104.70465 28 ft 2 kts 39°
2026-05-04 10:45 -2.89715 104.70452 31 ft 2 kts 92°
2026-05-04 10:45 -2.89714 104.70443 27 ft 0 kts 110°
2026-05-04 10:46 -2.89726 104.70473 30 ft 10 kts 112°
2026-05-04 10:47 -2.89773 104.70549 25 ft 15 kts 156°
2026-05-04 10:47 -2.89872 104.70542 22 ft 15 kts 151°
2026-05-04 10:47 -2.89923 104.70631 21 ft 15 kts 112°
2026-05-04 10:47 -2.89973 104.70752 19 ft 23 kts 113°
2026-05-04 10:49 -2.90239 104.70966 18 ft 9 kts 278°
2026-05-04 10:49 -2.90232 104.70946 18 ft 0 kts 290°
2026-05-04 10:51 -2.87595 104.64599 2116 ft 234 kts 299°
2026-05-04 10:52 -2.86388 104.63521 2600 ft 243 kts 340°
2026-05-04 10:52 -2.84656 104.63406 3014 ft 262 kts 16°
2026-05-04 10:52 -2.83051 104.64292 3755 ft 269 kts 44°
2026-05-04 10:54 -2.79673 104.77372 9307 ft 291 kts 78°
2026-05-04 10:54 -2.79263 104.79347 10049 ft 294 kts 78°
2026-05-04 10:56 -2.81775 104.95389 13141 ft 370 kts 112°
2026-05-04 10:56 -2.82753 104.97784 13750 ft 373 kts 111°
2026-05-04 10:56 -2.83726 105.00174 14263 ft 376 kts 111°
2026-05-04 10:57 -2.84717 105.02611 14811 ft 378 kts 111°
2026-05-04 10:57 -2.85759 105.05038 15340 ft 381 kts 118°
2026-05-04 10:57 -2.87421 105.07111 15834 ft 386 kts 138°
2026-05-04 10:57 -2.89690 105.08559 16354 ft 390 kts 156°
2026-05-04 10:58 -2.92262 105.09455 16871 ft 393 kts 161°
2026-05-04 10:58 -2.94878 105.10316 17331 ft 397 kts 157°
2026-05-04 10:58 -2.97376 105.11504 17790 ft 399 kts 150°
2026-05-04 10:58 -2.99764 105.12889 18257 ft 401 kts 148°
2026-05-04 10:59 -3.02159 105.14353 18656 ft 403 kts 147°
2026-05-04 10:59 -3.04558 105.15816 19058 ft 406 kts 148°
2026-05-04 10:59 -3.07001 105.17276 19448 ft 409 kts 148°
2026-05-04 10:59 -3.09461 105.18720 19837 ft 411 kts 148°
2026-05-04 11:00 -3.11945 105.20160 20214 ft 413 kts 149°
2026-05-04 11:01 -3.29377 105.30938 22701 ft 429 kts 139°
2026-05-04 11:02 -3.31642 105.32891 23036 ft 431 kts 138°
2026-05-04 11:02 -3.33912 105.34867 23350 ft 433 kts 138°
2026-05-04 11:05 -3.66633 105.61440 28817 ft 417 kts 147°
2026-05-04 11:06 -3.71627 105.64512 28893 ft 430 kts 147°
2026-05-04 11:06 -3.76783 105.67738 28895 ft 442 kts 147°
2026-05-04 11:08 -3.95748 105.79586 28885 ft 471 kts 147°
2026-05-04 11:10 -4.15344 105.91818 28884 ft 480 kts 147°
2026-05-04 11:12 -4.38260 106.06133 28883 ft 488 kts 147°
2026-05-04 11:12 -4.44003 106.09722 28806 ft 486 kts 147°
2026-05-04 11:13 -4.46815 106.11479 28497 ft 465 kts 147°
2026-05-04 11:13 -4.49550 106.13187 28247 ft 457 kts 147°
2026-05-04 11:13 -4.52219 106.14855 28008 ft 457 kts 147°
2026-05-04 11:13 -4.54932 106.16552 27757 ft 458 kts 147°
2026-05-04 11:14 -4.63026 106.21616 27035 ft 457 kts 147°
2026-05-04 11:16 -4.81179 106.32968 24199 ft 407 kts 147°
2026-05-04 11:16 -4.83557 106.34456 23702 ft 399 kts 147°
2026-05-04 11:16 -4.85112 106.35430 23348 ft 395 kts 147°
2026-05-04 11:17 -4.87447 106.36890 22792 ft 398 kts 147°
2026-05-04 11:17 -4.89900 106.38226 21909 ft 401 kts 152°
2026-05-04 11:19 -5.05732 106.45701 19432 ft 329 kts 153°
2026-05-04 11:19 -5.07782 106.46685 19090 ft 322 kts 153°
2026-05-04 11:19 -5.09802 106.47657 18765 ft 322 kts 152°
2026-05-04 11:19 -5.11817 106.48627 18437 ft 321 kts 152°
2026-05-04 11:20 -5.13839 106.49601 18106 ft 321 kts 152°
2026-05-04 11:20 -5.15848 106.50570 17724 ft 321 kts 152°
2026-05-04 11:20 -5.17863 106.51541 17349 ft 320 kts 152°
2026-05-04 11:20 -5.19872 106.52509 16983 ft 320 kts 153°
2026-05-04 11:22 -5.33843 106.59244 14507 ft 317 kts 153°
2026-05-04 11:22 -5.35805 106.60190 14170 ft 316 kts 153°
2026-05-04 11:23 -5.37792 106.61148 13838 ft 316 kts 153°
2026-05-04 11:23 -5.39774 106.62104 13483 ft 315 kts 153°
2026-05-04 11:24 -5.51554 106.67786 11284 ft 311 kts 153°
2026-05-04 11:25 -5.53504 106.68726 10933 ft 310 kts 153°
2026-05-04 11:25 -5.55454 106.69668 10587 ft 310 kts 153°
2026-05-04 11:25 -5.57398 106.70606 10241 ft 309 kts 153°
2026-05-04 11:26 -5.61239 106.72459 9534 ft 304 kts 153°
2026-05-04 11:27 -5.73780 106.78513 6693 ft 267 kts 153°
2026-05-04 11:28 -5.75430 106.79310 6372 ft 262 kts 153°
2026-05-04 11:28 -5.77058 106.80096 6026 ft 257 kts 153°
2026-05-04 11:28 -5.78658 106.80869 5679 ft 253 kts 153°
2026-05-04 11:28 -5.80228 106.81627 5368 ft 247 kts 153°
2026-05-04 11:29 -5.81758 106.82367 5124 ft 240 kts 153°
2026-05-04 11:29 -5.83245 106.83085 4872 ft 234 kts 153°
2026-05-04 11:29 -5.84684 106.83780 4645 ft 230 kts 153°
2026-05-04 11:29 -5.86123 106.84476 4395 ft 229 kts 153°
2026-05-04 11:31 -5.95157 106.88822 3100 ft 189 kts 159°
2026-05-04 11:33 -6.02645 106.83628 2198 ft 192 kts 219°
2026-05-04 11:33 -6.03664 106.82741 2108 ft 198 kts 221°
2026-05-04 11:33 -6.04450 106.81606 2022 ft 198 kts 244°
2026-05-04 11:34 -6.05033 106.80376 1975 ft 190 kts 245°
2026-05-04 11:34 -6.05546 106.79176 2013 ft 189 kts 248°
2026-05-04 11:34 -6.06038 106.77950 1999 ft 192 kts 248°
2026-05-04 11:34 -6.06534 106.76698 1981 ft 194 kts 248°
2026-05-04 11:35 -6.07039 106.75420 1770 ft 192 kts 248°
2026-05-04 11:35 -6.07515 106.74218 1509 ft 177 kts 248°
2026-05-04 11:35 -6.07953 106.73112 1299 ft 166 kts 248°
2026-05-04 11:35 -6.08378 106.72040 1097 ft 164 kts 248°
2026-05-04 11:36 -6.08795 106.70988 890 ft 164 kts 247°
2026-05-04 11:36 -6.09212 106.69936 677 ft 160 kts 247°
2026-05-04 11:36 -6.09617 106.68913 465 ft 156 kts 247°
2026-05-04 11:36 -6.10015 106.67902 292 ft 154 kts 248°
2026-05-04 11:37 -6.10416 106.66893 126 ft 155 kts 246°
2026-05-04 11:37 -6.10827 106.65908 41 ft 145 kts 248°
2026-05-04 11:37 -6.11109 106.65158 37 ft 84 kts 247°
2026-05-04 11:37 -6.11271 106.64752 40 ft 54 kts 248°
2026-05-04 11:38 -6.11418 106.64518 40 ft 30 kts 224°
2026-05-04 11:38 -6.11524 106.64435 38 ft 0 kts 205°
2026-05-04 11:39 -6.11525 106.64434 38 ft 2 kts 204°
2026-05-04 11:40 -6.11425 106.65095 39 ft 12 kts 69°
2026-05-04 11:41 -6.11393 106.65174 37 ft 13 kts 68°
2026-05-04 11:41 -6.11347 106.65290 38 ft 22 kts 68°
2026-05-04 11:41 -6.11290 106.65431 38 ft 22 kts 68°
2026-05-04 11:41 -6.11237 106.65569 35 ft 18 kts 78°
2026-05-04 11:42 -6.11279 106.65629 38 ft 0 kts 156°
2026-05-04 11:42 -6.11279 106.65630 38 ft 1 kts 156°
2026-05-04 11:42 -6.11311 106.65644 38 ft 10 kts 156°
2026-05-04 11:43 -6.11392 106.65691 37 ft 16 kts 128°
2026-05-04 11:43 -6.11422 106.65800 37 ft 16 kts 97°
2026-05-04 11:43 -6.11457 106.65870 37 ft 10 kts 151°
2026-05-04 11:43 -6.11479 106.65882 36 ft 0 kts 152°
2026-05-04 11:44 -6.11494 106.65889 37 ft 6 kts 153°
2026-05-04 11:44 -6.11560 106.65921 35 ft 14 kts 153°
2026-05-04 11:44 -6.11667 106.65969 37 ft 17 kts 158°
2026-05-04 11:44 -6.11776 106.66014 37 ft 16 kts 150°
2026-05-04 11:45 -6.11789 106.66102 37 ft 14 kts 68°
2026-05-04 11:45 -6.11753 106.66190 36 ft 13 kts 68°
2026-05-04 11:45 -6.11719 106.66271 37 ft 11 kts 50°
2026-05-04 11:45 -6.11686 106.66259 37 ft 6 kts 269°
2026-05-04 11:46 -6.11710 106.66225 37 ft 6 kts 225°
2026-05-04 11:46 -6.11746 106.66205 37 ft 6 kts 195°
2026-05-04 11:46 -6.11786 106.66212 37 ft 6 kts 161°
2026-05-04 11:46 -6.11824 106.66226 37 ft 5 kts 159°
2026-05-04 11:47 -6.11845 106.66234 37 ft 0 kts 158°